Location: Maiden
(35.5760°N, 81.2120°W)
Time: 03:22:46
(UTC-04:00)

Cosmos 292 Rocket - Pass Details

Date: 02 August 2020
Orbit: 674 x 693 km, 74.0° (Epoch: 11 August)

Event Time Altitude Azimuth Distance (km) Brightness Sun altitude
Rises 22:07:19 0° 338° (NNW) 3,032 8.2 -18.4°
Reaches altitude 10° 22:09:38 10° 335° (NNW) 2,112 7.2 -18.7°
Maximum altitude 22:14:19 61° 256° (WSW) 763 4.1 -19.5°
Enters shadow 22:16:46 27° 184° (S) 1,284 4.8 -19.8°
